Location: Brightside
(37.5991°N, 121.9244°W)
Time: 09:04:23
(UTC+00:00)

Daily predictions for brighter satellites

Satellite Brightness Start Highest point End
(mag) Time Altitude Azimuth Time Altitude Azimuth Time Altitude Azimuth
Cosmos 2082 Rocket 2.9 12:04:54 44° SE 12:06:05 52° ESE 12:11:38 10° NNE
Cosmos 2123 Rocket 4.3 12:07:13 10° N 12:13:22 64° E 12:19:31 10° SSE
Lacrosse 4 Rocket 3.7 12:18:03 18° SSE 12:18:03 18° SSE 12:19:09 10° SSE
OAO 2 Rocket 4.2 12:16:38 44° SE 12:16:38 44° SE 12:20:51 10° E
SJ 16-02 4.0 12:15:37 10° SE 12:18:40 19° E 12:21:43 10° NE
Cosmos 1605 Rocket 4.3 12:17:15 10° S 12:23:24 64° E 12:29:29 10° NNE
Milstar 3 4.2 12:25:26 28° SW 12:25:58 28° SSW 12:32:03 10° SSE
OAO 3 Rocket 4.2 12:26:54 36° SSE 12:26:54 36° SSE 12:31:17 10° E
Cosmos 1833 Rocket 3.0 12:30:08 50° N 12:30:08 50° N 12:34:24 10° NNE
Cosmos 1656 3.7 12:29:40 62° S 12:29:40 62° S 12:34:13 10° SSE
ISS -1.7 12:33:13 28° ESE 12:33:13 28° ESE 12:35:00 10° ESE
Cosmos 1538 Rocket 4.1 12:40:24 58° SW 12:40:24 58° SW 12:45:03 10° S
Cosmos 1484 Rocket 4.4 12:40:36 10° NNE 12:44:17 35° E 12:47:59 10° SSE
Centaur D AC-28 3.3 12:43:03 31° SW 12:44:52 40° S 12:58:39 10° ESE
Cosmos 1535 Rocket 4.5 12:44:33 47° WSW 12:45:39 53° W 12:51:41 10° N
Cosmos 1898 Rocket 4.3 12:42:05 10° S 12:47:06 51° ESE 12:52:11 10° NNE
Cosmos 1980 Rocket 3.0 12:46:05 10° NNW 12:51:38 51° ENE 12:57:08 10° SE
Meteor 2-2 Rocket 4.3 12:51:15 10° N 12:56:54 77° E 13:02:32 10° SSE
Gbstr 26 Del rocket 2.5 12:57:48 79° W 12:57:57 82° NW 13:01:42 10° NE
ASTEX 1 3.3 12:56:51 10° S 13:01:47 83° W 13:06:47 10° N
Cosmos 1937 Rocket 4.4 12:57:17 10° S 13:02:14 49° ESE 13:07:12 10° NNE
Lacrosse 5 2.2 13:03:18 41° WNW 13:03:45 42° NW 13:08:35 10° NNE
CZ-2C R/B 2.6 13:01:38 10° N 13:06:18 45° WNW 13:07:53 33° WSW
Cosmos 2369 3.7 13:04:26 27° NW 13:07:24 58° WSW 13:13:00 10° S
NOSS 3-3 (A) 3.9 13:03:01 10° SSW 13:08:53 87° ESE 13:15:24 10° NNE
NOSS 3-3 (C) 3.8 13:03:17 10° SSW 13:09:02 86° ESE 13:15:27 10° NNE
CZ-4B R/B 4.2 13:05:46 10° N 13:10:07 51° WNW 13:14:27 10° SSW
Meteor 1-27 4.3 13:05:48 10° NNW 13:11:32 58° W 13:17:14 10° S
PSLV R/B 3.6 13:09:35 10° N 13:13:27 86° WNW 13:17:22 10° SSW
Helios 1A Rocket 4.3 13:12:29 10° NNE 13:16:22 40° E 13:20:12 10° S
Cosmos 2360 4.1 13:12:31 12° NNW 13:17:55 79° WSW 13:23:38 10° SSE
STARLINK-80 3.3 13:16:26 27° SW 13:18:24 88° SE 13:22:15 10° NE
Cosmos 1076 Rocket 3.7 13:16:47 10° SSW 13:20:59 48° W 13:25:13 10° N
SL-27 R/B 2.1 13:18:48 10° SSW 13:22:05 65° WNW 13:25:23 10° N
CZ-4B R/B 4.2 13:17:52 10° NNE 13:23:06 50° E 13:28:23 10° S
CZ-3B R/B 4.0 13:20:44 12° SW 13:24:06 26° SSE 13:33:00 10° ESE
Atlas Centaur 2 3.3 13:23:31 12° SW 13:24:34 13° SSW 13:26:27 10° SSE
deb Kosmos-1763 4.1 13:23:50 10° SSW 13:27:26 54° WNW 13:31:05 10° N
Cosmos 2058 3.0 13:23:31 10° SSW 13:27:37 53° W 13:31:46 10° N
Cosmos 2278 3.8 13:23:12 14° NNW 13:28:04 53° WSW 13:33:35 10° S
Cosmos 2100 Rocket 4.0 13:23:16 10° S 13:29:29 86° E 13:35:41 10° N
Okean 3 Rocket 3.6 13:25:07 10° S 13:29:39 86° E 13:34:11 10° N
STARLINK-48 3.4 13:26:42 14° SW 13:29:59 85° SE 13:33:53 10° NE
Shenzhou-11 Module 3.1 13:31:31 25° NNW 13:31:53 26° N 13:34:15 10° ENE
Cosmos 1697 Rocket 3.2 13:28:48 18° NW 13:32:19 37° WSW 13:37:24 10° S
USA 267 4.1 13:27:21 10° NE 13:33:43 52° SE 13:40:03 10° SSW
APEX 3.5 13:33:19 28° WNW 13:34:25 37° WSW 13:38:01 10° S
FENGYUN 3A 3.8 13:32:04 10° NNE 13:37:31 81° ESE 13:42:55 10° S
Cosmos 2221 3.6 13:36:20 21° WNW 13:37:41 24° W 13:41:12 10° SW
Cosmos 2112 Rocket 4.0 13:32:25 10° NNW 13:37:41 67° WSW 13:42:58 10° S
Cosmos 1766 Rocket 3.5 13:35:59 10° S 13:40:17 85° E 13:44:39 10° N
Cosmos 1802 Rocket 4.2 13:34:16 10° S 13:40:41 80° E 13:47:08 10° N
COBE Rocket 4.4 13:38:20 10° SSW 13:43:13 42° W 13:48:05 10° NNW
ATLAS 2AS CENTAUR R/B 4.1 13:37:07 10° NNW 13:44:09 38° NE 13:50:39 10° ESE
Cosmos 1680 Rocket 3.8 13:40:37 10° NNW 13:45:41 47° WSW 13:50:44 10° S
COSMO-SKYMED 1 2.6 13:41:35 10° S 13:45:50 57° W 13:50:08 10° NNW
Cosmos 2061 Rocket 4.2 13:41:38 10° S 13:47:55 80° E 13:54:09 10° N
Cosmos 1356 Rocket 3.9 13:44:07 10° NNW 13:48:10 41° W 13:52:10 10° SSW
CZ-4B DEB 4.2 13:42:54 10° N 13:48:18 62° WNW 13:53:41 10° SSW
Cosmos 2082 Rocket 3.4 13:46:54 13° W 13:50:29 22° NW 13:54:51 10° N
SJ-12 4.2 13:46:59 10° N 13:50:57 46° WNW 13:54:55 10° SSW
In-Cosmos 22 Rocket 4.2 13:45:50 10° SSW 13:51:02 55° WNW 13:56:21 10° N
METEOR-M 4.1 13:48:51 10° N 13:54:10 68° WNW 13:59:27 10° SSW
SJ 16-02 2.0 13:53:00 10° SW 13:56:58 33° WNW 14:00:56 10° N
OAO 2 Rocket 3.6 13:55:37 11° W 14:00:34 66° S 14:05:32 10° E
SL-4 R/B 4.4 13:57:46 10° NNW 14:01:07 18° NNE 14:04:26 10° ENE
STARLINK-45 4.3 14:01:32 10° SSW 14:05:35 57° SE 14:09:38 10° NE
ALOS 2.5 14:01:46 10° N 14:06:13 45° WNW 14:10:40 10° SW
Okean O Rocket 1.7 14:02:00 10° N 14:06:13 52° WNW 14:10:26 10° SSW
ISS -1.6 14:06:19 10° W 14:08:05 14° SW 14:09:51 10° SSW
STARLINK-76 4.5 14:04:40 10° SSW 14:08:42 54° SE 14:12:45 10° ENE
Cosmos 158 Rocket 4.0 14:04:16 10° NNW 14:09:04 51° WSW 14:13:46 10° S
Cosmos 2173 Rocket 4.2 14:03:31 10° SSW 14:09:34 48° W 14:15:35 10° N
OAO 3 Rocket 3.5 14:05:23 10° WSW 14:10:08 63° S 14:14:49 10° E
STARLINK 4.4 14:06:19 10° SSW 14:10:22 56° SE 14:14:26 10° NE
Cosmos 2151 3.5 14:06:45 10° SSW 14:10:43 37° WNW 14:14:45 10° N
STARLINK-32 4.3 14:07:56 10° SSW 14:12:00 59° SE 14:16:05 10° NE
STARLINK-40 4.2 14:09:34 10° SW 14:13:39 61° SE 14:17:44 10° NE
SMAP 3.8 14:10:42 10° NNE 14:15:19 58° E 14:19:53 10° S
STARLINK-44 4.2 14:11:14 10° SW 14:15:19 63° SE 14:19:26 10° NE
STARLINK-36 4.1 14:12:54 10° SW 14:16:59 66° SE 14:21:06 10° NE
Cosmos 1484 Rocket 4.4 14:15:57 10° NNW 14:18:23 16° WNW 14:20:48 10° WSW
ATLAS CENTAUR R/B 2.0 14:14:26 10° SSW 14:19:22 80° ESE 14:24:14 10° NNE
Cosmos 1437 2.9 14:16:53 10° S 14:19:54 71° E 14:22:56 10° NNE
